Wetbulb
61.68 63.37 66.06 69.78 70.67 71.19 71.24 71.17 71.14 71.37 71.40 71.49 71.67 71.97 72.09 72.08 72.14 72.26 71.96 71.66 71.52 71.74 71.49 71.32 71.65 71.72 72.54 72.42 71.68 71.33 71.21 71.66 71.80 71.65 71.87 71.97 72.38 72.99 73.02 73.00 72.50 71.02 72.60
62.67 63.47 66.99 69.56 70.04 70.43 70.23 70.05 69.86 69.99 70.53 70.97 71.13 71.47 71.46 71.60 71.54 72.03 71.79 71.76 71.75 71.67 71.48 71.44 71.36 70.99 71.27 71.68 71.08 70.56 69.97 70.09 70.73 71.06 70.41 70.11 70.92 72.24 72.42 72.77 72.07 70.60 71.27
62.21 63.91 66.41 69.02 69.22 69.44 69.15 68.95 69.03 69.23 69.51 69.81 70.07 70.36 70.91 70.74 70.83 70.90 71.03 71.12 71.23 71.31 71.37 71.32 70.92 70.93 70.55 70.17 70.14 70.22 69.97 69.96 70.03 69.71 70.43 68.64 69.11 72.12 71.45 72.27 72.11 71.51 71.28
62.79 63.36 65.77 68.05 68.25 68.47 68.25 68.08 67.91 68.40 68.47 68.62 69.35 69.67 69.72 69.71 69.64 69.35 69.36 69.36 69.50 69.90 70.04 69.96 69.26 69.60 69.87 69.81 69.11 69.01 69.19 69.39 69.90 69.75 68.33 67.08 68.97 71.48 71.41 70.64 70.35 71.11 71.07
61.14 63.14 65.67 67.45 67.91 67.85 67.99 67.74 67.59 67.67 67.78 68.05 68.11 68.04 68.20 68.00 67.79 67.61 67.60 67.45 67.17 67.45 67.60 67.87 67.73 67.45 67.94 67.86 67.66 67.22 67.59 68.21 69.57 68.94 67.88 65.79 66.40 69.74 70.42 70.13 70.24 71.16 70.92
58.68 60.78 65.92 66.75 66.80 66.90 66.98 66.48 66.42 66.89 67.24 67.08 66.97 66.58 66.36 66.13 65.74 65.35 65.22 65.21 65.30 65.43 65.66 65.82 65.55 65.37 65.39 64.92 64.51 65.22 66.13 68.77 68.39 66.97 67.11 69.19 68.20 70.08 69.76 69.62 69.83 70.99 70.99
56.69 61.98 64.13 66.27 66.17 66.31 65.95 65.78 65.80 65.87 66.20 65.88 65.43 65.23 64.93 64.61 64.10 63.61 63.27 63.04 63.12 63.29 63.81 63.68 63.38 63.21 62.76 62.83 63.10 63.80 64.62 65.47 65.72 64.76 63.77 65.31 68.65 70.72 70.60 70.21 69.64 69.03 70.41
58.26 61.07 62.82 65.10 65.45 65.25 65.07 65.06 64.97 65.10 65.07 64.36 63.73 63.25 62.78 62.45 61.90 61.29 60.55 60.54 60.89 60.81 60.99 61.45 61.12 60.76 60.42 60.70 61.62 62.04 62.52 62.29 59.53 61.22 60.99 63.14 69.24 70.68 70.92 70.42 70.28 69.71 68.66
55.49 57.11 60.21 61.54 63.27 64.04 63.65 63.67 63.44 63.39 63.29 62.08 61.19 60.57 59.78 59.21 59.03 58.78 58.00 57.89 57.51 56.97 57.04 57.94 58.29 58.14 57.86 57.73 57.84 59.67 59.37 60.46 56.19 56.89 59.44 61.91 67.16 69.89 70.86 70.44 70.68 70.59 70.12
51.83 53.48 57.29 59.48 59.06 58.55 59.23 61.20 60.60 60.31 59.54 58.28 56.93 55.73 54.91 54.68 54.85 55.06 54.66 54.74 54.65 53.93 53.24 52.40 52.83 54.06 54.54 54.43 54.53 55.06 57.86 56.85 52.56 53.78 55.14 60.28 65.87 67.47 68.64 69.47 69.88 69.85 70.41
48.51 50.16 54.30 56.00 55.07 54.31 54.49 55.65 55.59 55.29 54.24 53.14 51.02 51.42 48.70 45.18 45.49 46.77 50.86 51.46 51.34 51.03 50.55 49.90 49.45 48.43 49.35 50.56 52.13 52.99 52.19 51.02 51.47 51.37 53.89 60.86 64.04 65.87 66.25 67.33 68.37 68.57 68.98
45.57 47.85 52.39 53.04 52.19 51.16 50.56 48.76 47.90 47.62 45.58 43.01 41.65 40.57 40.75 40.70 41.27 42.61 44.33 46.07 46.58 46.91 47.22 47.90 47.79 46.93 44.26 39.78 40.64 46.66 46.19 48.43 49.15 50.30 53.49 60.21 62.07 64.04 64.82 65.27 66.02 67.08 67.43
45.86 48.03 48.50 49.14 50.39 48.38 45.91 43.90 41.09 40.79 39.86 38.31 38.47 38.63 38.28 39.49 39.21 37.66 36.99 37.53 36.75 42.62 37.30 38.58 36.89 36.15 35.14 37.38 38.26 38.60 42.32 44.50 49.58 52.31 56.12 62.21 62.66 62.19 62.93 64.18 64.46 65.13 66.48
45.03 46.73 46.37 46.50 45.63 44.56 43.79 40.83 39.89 39.81 40.02 39.88 39.57 38.83 37.00 36.41 36.01 35.95 35.81 35.78 35.45 35.66 35.48 35.26 34.64 34.82 34.76 35.20 35.51 36.49 38.19 39.17 44.57 49.91 53.43 57.43 60.63 63.75 66.19 66.52 66.54 65.02 66.02
44.71 46.10 45.93 46.05 45.58 44.67 42.24 40.45 39.88 39.60 39.61 39.53 39.63 40.36 39.55 35.99 34.93 35.33 35.19 35.27 34.90 35.37 34.85 34.19 34.22 34.49 34.02 34.58 35.39 35.88 36.39 39.19 43.68 48.20 48.86 52.62 55.99 58.94 61.16 62.73 64.91 65.29 65.68
45.14 45.32 45.94 45.70 44.50 43.09 40.15 39.75 39.48 38.93 36.20 36.65 38.18 38.71 37.84 36.35 35.13 34.91 34.51 34.62 34.27 34.66 34.63 34.27 33.89 33.86 33.61 34.24 34.36 35.55 35.60 36.19 37.90 41.18 44.96 47.52 50.60 52.57 56.30 58.82 60.32 61.48 62.42
45.22 45.58 45.10 44.96 43.02 41.00 39.47 39.07 38.55 36.76 35.94 34.65 34.94 35.94 36.55 36.55 35.31 34.99 34.09 33.24 33.53 34.54 35.06 34.78 34.81 35.10 34.60 35.82 33.63 34.58 35.29 34.90 35.53 35.64 37.20 37.90 41.89 46.16 49.33 53.33 55.86 57.38 58.76
46.03 44.41 45.31 45.06 41.96 39.86 38.99 38.26 37.34 34.82 34.07 33.68 33.82 34.47 35.63 36.59 35.74 34.29 33.12 32.63 33.66 33.89 33.95 33.24 33.27 32.83 33.10 33.69 33.15 33.79 33.42 34.46 34.92 34.95 35.65 35.49 36.11 37.66 41.73 45.81 48.76 52.05 54.40
46.58 44.99 43.51 42.76 40.94 39.33 38.09 37.52 34.52 34.58 33.70 33.64 33.57 33.32 34.44 35.09 35.13 33.04 32.32 32.43 33.31 32.37 32.58 33.41 32.54 32.34 31.11 32.02 34.22 33.39 33.61 33.00 33.58 35.75 33.94 35.04 35.72 35.04 35.16 41.48 43.39 45.51 48.73
43.55 43.13 41.70 40.19 37.84 36.73 36.07 34.53 33.75 33.68 33.77 33.65 33.04 32.89 34.10 33.96 34.30 32.86 31.84 32.38 33.06 32.17 31.77 31.81 31.05 32.04 31.39 30.97 35.83 33.34 31.85 32.98 33.14 32.27 32.39 35.24 34.56 34.73 34.86 35.19 35.28 37.43 44.15
40.49 40.12 39.34 37.03 35.49 34.79 32.09 31.37 30.62 29.82 30.99 31.59 32.72 34.41 33.65 34.02 34.56 33.09 32.19 31.90 31.97 30.44 30.22 31.17 30.86 30.77 30.13 31.54 31.49 30.48 30.56 31.95 31.26 31.69 32.39 32.06 32.92 33.89 33.87 34.03 34.56 34.40 35.93
37.84 38.06 37.35 36.68 34.78 33.96 33.20 31.79 31.81 32.01 31.51 32.34 32.83 33.14 33.91 33.79 34.35 33.77 31.69 30.27 30.82 30.24 30.28 30.14 29.94 29.01 29.09 29.99 28.93 29.87 26.94 28.74 30.29 32.13 31.28 32.34 30.59 32.59 33.37 34.04 33.54 34.26 34.20
35.52 36.16 36.43 35.51 34.28 34.07 33.93 33.08 31.98 31.56 30.89 29.52 29.11 29.29 31.23 32.45 32.91 32.48 31.78 30.87 30.40 30.22 28.80 28.79 28.87 28.29 27.88 28.51 28.38 27.08 26.16 24.94 26.59 29.62 30.06 30.30 30.03 30.01 30.96 32.33 33.39 33.92 33.81
35.42 35.50 35.74 35.45 34.26 34.43 33.99 31.89 30.55 29.05 27.76 28.03 28.43 28.71 29.20 31.56 31.46 32.09 31.71 30.73 30.02 29.81 28.13 28.35 30.54 28.80 28.24 26.50 28.30 31.32 27.35 26.11 24.30 23.24 27.63 28.77 30.08 31.16 29.95 30.58 31.21 32.84 33.16
35.61 34.34 34.47 34.41 33.86 33.78 32.92 32.53 30.31 28.84 29.05 29.21 28.28 27.63 28.41 29.39 30.68 30.91 30.81 29.72 29.02 28.93 28.32 28.16 27.50 27.52 27.45 26.44 26.83 26.11 26.34 26.41 26.05 24.41 22.98 25.18 27.58 28.93 30.13 30.09 30.19 30.36 33.14
33.69 32.61 32.14 32.57 32.57 32.96 32.14 31.68 30.20 28.99 29.24 28.30 27.94 26.59 26.88 27.67 28.09 29.10 30.11 28.86 28.73 28.26 27.70 27.39 27.44 26.95 26.32 26.39 26.31 26.63 26.19 23.94 23.90 23.66 22.44 22.94 23.34 26.36 28.31 29.72 29.79 30.33 31.54
MSLP
1012.82 1013.18 1013.34 1013.23 1013.30 1013.45 1013.59 1013.84 1014.12 1014.27 1014.44 1014.64 1014.81 1014.98 1015.21 1015.14 1015.31 1015.24 1015.55 1015.85 1016.16 1016.30 1016.73 1017.17 1017.12 1017.21 1017.24 1017.22 1017.34 1017.38 1017.36 1017.47 1017.52 1017.73 1017.73 1017.72 1017.73 1017.63 1017.55 1017.72 1017.87 1018.02 1018.05
1012.48 1013.22 1013.28 1013.34 1013.53 1013.75 1014.03 1014.30 1014.60 1014.78 1014.84 1014.95 1015.19 1015.41 1015.55 1015.64 1015.75 1015.71 1016.08 1016.21 1016.49 1016.75 1016.98 1017.38 1017.57 1017.77 1017.67 1017.78 1017.88 1017.94 1017.82 1017.81 1017.89 1018.01 1017.98 1018.15 1018.13 1018.09 1018.09 1018.23 1018.50 1018.53 1018.59
1012.54 1013.17 1013.31 1013.52 1013.81 1014.13 1014.37 1014.75 1015.04 1015.03 1015.25 1015.47 1015.66 1015.86 1016.01 1016.22 1016.39 1016.53 1016.74 1016.91 1016.95 1017.08 1017.39 1017.65 1018.21 1018.16 1018.29 1018.29 1018.32 1018.34 1018.32 1018.08 1018.13 1018.25 1018.18 1018.34 1018.52 1018.52 1018.45 1018.65 1018.79 1018.93 1018.96
1012.46 1013.20 1013.46 1013.75 1014.06 1014.42 1014.72 1015.03 1015.29 1015.37 1015.64 1015.87 1016.10 1016.28 1016.67 1016.77 1017.05 1017.32 1017.45 1017.68 1017.68 1017.86 1018.06 1018.17 1018.52 1018.71 1018.70 1018.73 1018.70 1018.86 1018.60 1018.48 1018.33 1018.06 1018.25 1018.35 1018.68 1018.83 1018.85 1018.99 1019.10 1019.22 1019.36
1012.68 1013.17 1013.56 1013.92 1014.26 1014.63 1015.03 1015.41 1015.63 1015.79 1016.10 1016.36 1016.67 1016.89 1017.21 1017.41 1017.70 1018.02 1018.18 1018.41 1018.48 1018.62 1018.83 1018.87 1018.90 1019.23 1019.24 1019.33 1019.34 1019.17 1018.98 1018.77 1018.54 1018.37 1018.56 1018.73 1019.01 1019.27 1019.35 1019.23 1019.43 1019.47 1019.65
1013.32 1013.56 1013.78 1014.12 1014.55 1014.97 1015.38 1015.78 1016.01 1016.11 1016.44 1016.83 1017.12 1017.43 1017.78 1018.04 1018.33 1018.66 1018.83 1018.99 1019.17 1019.31 1019.40 1019.44 1019.79 1019.76 1019.94 1019.92 1019.72 1019.61 1019.44 1018.90 1018.81 1019.32 1019.42 1019.43 1019.38 1019.50 1019.68 1019.66 1019.72 1019.73 1019.82
1013.89 1013.81 1014.02 1014.30 1014.76 1015.24 1015.69 1016.07 1016.31 1016.53 1016.81 1017.28 1017.67 1018.04 1018.36 1018.64 1019.00 1019.24 1019.32 1019.69 1019.78 1019.90 1019.90 1020.00 1020.29 1020.40 1020.33 1020.18 1020.16 1020.10 1019.82 1019.57 1019.37 1019.85 1020.10 1020.20 1019.96 1019.68 1019.87 1019.98 1020.01 1020.01 1020.09
1014.03 1014.01 1014.27 1014.54 1014.96 1015.49 1015.94 1016.32 1016.61 1016.82 1017.24 1017.79 1018.21 1018.64 1019.00 1019.28 1019.53 1019.80 1020.18 1020.27 1020.36 1020.43 1020.51 1020.67 1020.88 1020.95 1020.81 1020.85 1020.64 1020.60 1020.44 1020.36 1020.43 1020.47 1020.87 1020.85 1020.49 1019.97 1019.99 1020.21 1020.24 1020.37 1020.38
1014.53 1014.46 1014.68 1014.98 1015.40 1015.86 1016.27 1016.72 1017.09 1017.33 1017.77 1018.38 1018.91 1019.36 1019.72 1020.09 1020.34 1020.68 1020.73 1020.92 1021.02 1021.54 1021.43 1021.53 1021.66 1021.60 1021.33 1021.49 1021.25 1021.23 1021.27 1021.09 1021.28 1021.53 1021.56 1021.36 1021.03 1020.77 1020.44 1020.47 1020.45 1020.63 1020.67
1015.26 1015.14 1015.12 1015.47 1015.98 1016.48 1016.99 1017.37 1017.86 1018.12 1018.71 1019.30 1019.97 1020.44 1020.65 1020.94 1021.21 1021.45 1021.73 1021.94 1021.97 1021.97 1022.39 1022.39 1022.25 1022.11 1022.01 1022.03 1021.77 1021.57 1021.72 1021.84 1022.15 1022.36 1022.26 1021.91 1021.68 1021.62 1021.15 1020.97 1020.87 1021.03 1020.96
1015.71 1015.67 1015.57 1015.89 1016.45 1017.06 1017.72 1018.37 1018.99 1019.42 1019.95 1020.37 1020.77 1020.92 1021.32 1021.74 1022.17 1022.29 1022.22 1022.29 1022.52 1022.50 1022.44 1022.46 1022.63 1022.56 1022.58 1022.49 1022.26 1022.17 1022.19 1022.48 1022.76 1022.97 1022.91 1022.18 1022.16 1021.94 1021.85 1021.49 1021.47 1021.57 1021.37
1015.95 1016.02 1016.05 1016.26 1016.80 1017.41 1018.15 1019.09 1019.72 1020.16 1020.65 1021.15 1021.35 1021.50 1021.85 1022.19 1022.56 1022.80 1022.84 1023.03 1022.95 1022.72 1022.73 1022.78 1022.76 1022.97 1023.07 1023.10 1022.91 1022.81 1022.79 1022.93 1023.45 1023.28 1023.23 1022.87 1022.53 1022.47 1022.33 1022.00 1022.01 1022.14 1021.80
1015.81 1016.12 1016.33 1016.58 1017.08 1017.60 1018.56 1019.30 1019.96 1020.47 1020.96 1021.25 1021.40 1021.84 1022.34 1022.59 1022.76 1022.94 1023.03 1022.93 1022.99 1022.99 1023.20 1023.33 1023.69 1023.71 1023.54 1023.28 1023.46 1023.70 1023.43 1023.63 1023.71 1023.97 1023.90 1023.13 1022.54 1022.70 1022.60 1022.33 1022.39 1022.31 1022.28
1015.85 1016.30 1016.64 1016.92 1017.33 1018.15 1018.71 1019.46 1020.11 1020.70 1021.12 1021.52 1021.76 1021.92 1022.34 1022.59 1022.72 1022.98 1023.21 1023.24 1023.25 1023.38 1023.57 1023.70 1023.80 1023.72 1023.83 1023.89 1024.05 1024.17 1024.23 1024.34 1024.24 1024.46 1024.34 1023.94 1023.53 1023.17 1022.68 1022.45 1022.43 1022.29 1022.37
1015.39 1016.18 1016.80 1017.15 1017.57 1018.18 1018.70 1019.37 1020.05 1020.65 1021.28 1021.64 1021.96 1022.02 1022.27 1022.75 1023.12 1023.35 1023.57 1023.75 1023.85 1023.79 1023.87 1024.06 1024.08 1024.19 1024.47 1024.66 1024.63 1024.89 1024.88 1024.61 1024.86 1025.07 1025.53 1025.12 1024.62 1024.20 1023.96 1023.66 1023.02 1023.01 1023.11
1015.04 1015.77 1016.44 1017.12 1017.67 1018.16 1018.75 1019.32 1019.97 1020.57 1021.44 1021.99 1022.33 1022.44 1022.54 1022.90 1023.31 1023.66 1023.98 1024.28 1024.44 1024.42 1024.37 1024.44 1024.59 1024.74 1024.85 1025.02 1025.32 1025.26 1025.33 1025.58 1025.62 1025.67 1025.82 1025.85 1025.63 1025.65 1025.15 1024.83 1024.34 1024.19 1024.07
1014.53 1015.43 1016.25 1016.88 1017.48 1018.07 1018.69 1019.37 1020.17 1020.85 1021.56 1022.25 1022.62 1022.79 1022.95 1023.16 1023.52 1023.85 1024.31 1024.65 1024.79 1024.73 1024.77 1024.80 1024.85 1024.91 1025.13 1025.15 1025.52 1025.68 1025.84 1025.99 1026.07 1026.29 1026.31 1026.41 1026.53 1026.62 1026.39 1026.05 1025.64 1025.33 1025.01
1014.09 1015.16 1016.00 1016.72 1017.52 1018.17 1018.76 1019.53 1020.30 1021.09 1021.72 1022.32 1022.78 1023.05 1023.26 1023.49 1023.78 1024.21 1024.64 1024.89 1024.89 1024.99 1025.14 1025.33 1025.50 1025.58 1025.64 1025.83 1026.10 1026.28 1026.38 1026.37 1026.62 1026.90 1026.99 1027.22 1027.10 1027.08 1027.29 1027.06 1026.92 1026.41 1026.21
1013.43 1014.70 1015.74 1016.69 1017.50 1018.31 1019.09 1019.88 1020.68 1021.27 1021.91 1022.45 1022.94 1023.41 1023.66 1023.84 1024.12 1024.61 1025.01 1025.20 1025.19 1025.38 1025.46 1025.53 1025.82 1026.08 1026.22 1026.30 1026.44 1026.69 1026.84 1027.05 1027.07 1027.07 1027.37 1027.62 1027.67 1027.76 1027.99 1027.71 1027.54 1027.44 1027.17
1013.57 1014.77 1015.92 1016.95 1017.78 1018.50 1019.42 1020.34 1021.07 1021.64 1022.14 1022.59 1023.24 1023.75 1024.03 1024.26 1024.53 1024.90 1025.29 1025.46 1025.55 1025.81 1025.99 1026.16 1026.22 1026.41 1026.68 1026.82 1026.90 1027.25 1027.36 1027.31 1027.44 1027.73 1027.92 1027.98 1028.12 1028.36 1028.41 1028.28 1028.18 1028.06 1027.79
1014.06 1015.23 1016.17 1017.13 1018.19 1019.13 1019.95 1020.68 1021.32 1021.92 1022.41 1022.95 1023.33 1023.73 1024.20 1024.40 1024.75 1025.14 1025.51 1025.81 1026.10 1026.46 1026.65 1026.62 1026.76 1026.92 1027.12 1027.31 1027.51 1027.92 1027.93 1027.82 1027.93 1028.07 1028.18 1028.45 1028.56 1028.55 1028.50 1028.53 1028.55 1028.58 1028.49
1014.38 1015.40 1016.45 1017.52 1018.48 1019.32 1020.12 1020.70 1021.16 1021.83 1022.52 1023.02 1023.49 1023.93 1024.34 1024.52 1024.77 1025.20 1025.65 1026.03 1026.31 1026.65 1026.90 1027.11 1027.34 1027.67 1027.82 1027.80 1028.10 1028.00 1028.60 1028.76 1028.49 1028.56 1028.64 1028.65 1028.87 1028.77 1028.79 1028.78 1028.88 1028.90 1028.88
1015.00 1015.87 1016.71 1017.65 1018.68 1019.62 1020.22 1020.72 1021.21 1021.84 1022.68 1023.47 1024.07 1024.55 1024.68 1024.85 1025.13 1025.44 1025.85 1026.15 1026.41 1026.75 1027.14 1027.32 1027.48 1027.77 1028.17 1028.36 1028.24 1028.39 1028.51 1028.92 1028.99 1028.98 1029.01 1029.05 1029.07 1029.17 1029.16 1029.15 1029.20 1029.21 1029.21
1015.39 1016.15 1016.96 1017.85 1018.82 1019.59 1020.17 1020.68 1021.27 1021.91 1022.79 1023.61 1024.14 1024.71 1025.04 1025.22 1025.56 1025.81 1026.13 1026.43 1026.70 1027.09 1027.51 1027.56 1027.76 1028.12 1028.17 1028.61 1028.68 1028.73 1028.73 1028.92 1029.15 1029.72 1029.50 1029.35 1029.21 1029.30 1029.31 1029.43 1029.46 1029.42 1029.49
1015.86 1016.48 1017.23 1018.12 1018.98 1019.59 1020.18 1020.77 1021.49 1022.30 1022.83 1023.46 1024.18 1024.86 1025.37 1025.65 1025.87 1026.18 1026.50 1026.79 1027.03 1027.40 1027.75 1028.05 1028.45 1028.66 1028.84 1029.14 1029.26 1029.38 1029.42 1029.28 1029.15 1029.51 1029.86 1029.80 1029.68 1029.40 1029.33 1029.40 1029.46 1029.67 1029.60
1016.60 1017.08 1017.72 1018.54 1019.28 1019.80 1020.38 1020.98 1021.63 1022.35 1022.99 1023.77 1024.47 1025.12 1025.61 1026.09 1026.35 1026.49 1026.68 1027.07 1027.37 1027.75 1028.13 1028.45 1028.63 1028.99 1029.28 1029.45 1029.60 1029.71 1030.00 1030.19 1030.17 1030.08 1030.21 1030.20 1030.04 1029.75 1029.53 1029.43 1029.44 1029.70 1029.69
Wind_Speed
10 8 8 13 14 16 18 19 18 18 18 17 17 17 16 15 15 16 13 14 16 19 19 14 13 14 15 16 15 15 15 15 15 15 14 14 14 18 17 18 16 12 17
14 9 9 13 14 16 18 18 17 17 17 18 17 17 18 18 18 19 17 16 17 18 17 15 12 12 13 14 13 12 12 11 11 10 13 12 12 15 19 18 14 13 15
13 10 9 14 15 15 17 17 16 17 17 16 16 17 19 20 21 21 20 20 19 19 19 20 17 13 14 12 12 12 9 8 6 3 1 7 7 13 16 14 13 14 14
13 9 10 16 15 15 16 15 14 17 17 16 16 17 16 19 20 19 19 19 20 20 19 20 18 16 15 13 12 10 9 10 11 8 1 8 9 12 14 13 13 12 14
10 7 9 17 16 16 16 16 16 17 16 17 17 18 17 18 18 18 18 18 17 18 17 18 18 14 15 14 12 11 11 12 14 15 9 6 6 10 12 12 12 14 14
8 3 15 18 17 15 16 15 15 18 18 17 18 18 17 17 17 16 16 17 17 17 17 18 16 15 13 12 13 13 15 12 13 12 12 11 6 11 12 13 12 12 12
7 6 10 19 18 16 16 16 16 17 18 18 18 17 18 18 18 18 17 16 16 16 16 16 15 15 14 15 14 14 17 18 12 12 11 12 5 9 11 11 10 11 10
5 6 8 16 18 18 17 16 17 18 19 19 19 18 18 18 18 18 16 16 17 17 17 16 15 14 14 15 14 15 18 17 13 13 12 9 14 12 12 10 9 9 9
5 5 6 8 13 18 18 17 18 20 21 21 20 20 19 18 18 17 16 16 16 15 16 15 15 14 14 13 15 16 18 18 11 9 11 8 15 16 16 12 13 11 9
5 5 6 9 10 11 11 21 20 21 22 21 20 19 18 17 16 16 16 15 16 16 14 13 14 15 15 14 13 12 12 16 11 9 7 7 14 13 14 15 15 14 13
5 4 6 10 11 13 13 15 20 21 20 18 13 13 12 7 8 9 14 15 15 14 14 13 12 10 11 13 14 14 13 6 7 5 5 13 12 13 13 13 14 13 14
6 4 7 12 13 14 11 11 10 8 6 5 5 4 6 7 6 8 10 12 12 13 12 13 13 13 9 4 5 9 5 7 6 5 4 12 9 9 10 11 10 10 11
9 7 6 10 11 12 10 7 4 3 3 3 6 7 6 5 3 3 2 2 3 8 4 7 6 4 7 5 5 5 6 4 4 6 9 19 8 5 6 9 8 7 8
11 10 10 10 12 11 8 6 6 5 3 3 4 5 4 3 4 4 3 4 5 3 5 4 3 5 7 8 7 6 6 4 4 5 11 22 20 22 19 16 13 5 7
14 12 12 11 10 11 10 8 7 5 4 5 4 4 4 4 5 4 4 4 4 5 5 5 4 5 6 6 6 7 6 6 6 5 6 20 21 21 21 21 22 22 20
15 14 13 11 11 9 7 8 7 5 6 5 4 4 6 5 5 5 4 5 5 4 4 4 4 4 4 5 5 6 7 6 6 6 4 8 20 20 21 20 21 20 18
15 15 14 12 13 10 9 7 7 6 6 5 4 5 6 5 6 6 5 5 3 3 4 4 4 4 5 4 6 6 5 6 6 7 6 6 6 15 18 19 19 19 18
18 17 15 12 12 11 8 7 7 5 5 5 5 4 6 6 6 6 5 4 4 4 4 4 4 4 4 5 4 5 5 5 6 6 6 5 5 6 10 15 17 18 17
16 18 16 13 12 10 9 7 6 7 5 5 5 5 6 6 7 6 5 4 5 4 4 4 4 4 4 3 5 5 5 5 5 5 6 6 6 6 4 10 13 15 16
11 13 11 9 9 9 7 6 5 5 4 5 5 5 6 5 7 6 5 5 4 4 5 4 5 5 4 3 5 5 4 4 5 5 5 5 5 5 4 5 5 6 14
9 12 12 11 9 7 4 6 5 5 5 4 5 7 6 6 6 6 4 5 5 5 4 4 3 5 5 5 3 3 3 4 5 3 4 4 4 4 5 5 4 3 4
9 12 12 11 10 7 5 4 4 5 4 5 5 6 6 6 6 6 6 5 6 5 5 5 5 2 3 5 2 2 2 3 3 3 3 3 4 3 5 5 5 5 4
8 10 11 10 10 7 7 5 5 5 5 4 4 4 5 6 6 7 6 5 6 5 4 5 5 6 3 3 6 3 2 2 2 1 2 3 4 3 4 4 5 5 5
7 8 11 10 10 7 7 5 9 6 7 4 4 4 5 6 6 6 6 6 6 5 6 4 5 5 4 4 3 3 4 3 2 1 1 1 1 3 3 3 3 3 4
7 8 8 10 8 7 7 7 6 6 5 5 5 7 6 6 6 6 6 6 6 5 6 6 6 6 4 4 4 2 3 2 2 3 2 2 2 1 2 2 2 2 4
7 7 8 10 7 7 7 7 8 8 9 8 7 5 4 4 4 6 6 6 6 6 6 5 5 6 5 4 3 4 3 2 3 3 3 2 1 2 0 1 2 1 3
Wind_Direction
124 132 147 129 118 107 101 97 93 95 97 97 92 91 89 90 95 94 99 103 101 98 93 78 59 68 70 74 73 71 75 76 79 79 71 66 63 60 73 70 69 69 70
126 140 151 131 116 112 104 96 97 96 92 93 91 84 81 85 82 82 81 93 99 103 100 100 84 77 72 74 76 70 74 78 80 96 95 68 61 70 70 69 71 71 72
133 133 151 124 117 116 110 106 105 96 94 93 95 90 83 79 77 74 76 79 87 88 91 86 72 96 81 71 76 64 57 56 69 104 136 95 71 72 75 74 76 74 72
135 148 131 125 121 116 117 119 115 104 99 95 90 86 85 83 79 80 76 74 71 70 74 77 73 56 66 65 71 52 39 18 354 331 235 95 78 78 79 79 79 82 77
122 124 142 131 123 123 122 121 117 109 107 103 97 92 87 84 82 81 77 76 78 80 77 76 79 73 64 59 55 34 13 10 38 38 33 80 85 70 68 87 79 75 85
107 148 149 137 126 123 123 122 121 114 109 102 98 97 92 89 85 80 80 79 79 76 77 78 77 75 75 65 52 32 16 19 62 49 37 33 62 81 74 75 81 81 83
141 161 147 141 134 128 124 124 120 116 110 105 98 95 93 90 88 86 81 78 76 75 74 75 77 73 70 63 54 42 34 39 60 56 42 25 31 82 81 76 75 80 82
126 132 138 146 139 133 126 122 121 116 112 106 100 96 90 86 84 80 81 81 75 72 70 67 67 68 63 64 63 52 46 49 45 53 37 21 23 66 81 83 79 80 78
69 78 116 123 132 128 121 117 117 109 108 104 98 96 92 88 88 85 81 74 73 74 67 68 67 63 66 63 64 66 55 56 53 46 36 20 20 40 59 74 78 74 71
56 65 95 108 108 100 102 103 101 99 103 103 99 98 97 92 88 87 83 88 82 77 75 70 64 67 67 66 64 65 67 64 58 39 28 24 25 37 47 53 69 64 67
75 57 92 112 106 102 98 96 91 91 89 92 97 106 100 92 77 68 83 81 83 80 75 69 69 76 72 66 60 63 54 52 62 56 14 30 25 33 39 51 56 61 62
134 105 115 122 120 112 111 101 102 108 105 124 154 87 58 63 92 97 95 87 82 75 69 63 61 51 42 43 44 45 55 65 58 42 20 24 29 37 41 54 56 60 67
146 138 113 123 125 114 112 107 97 86 82 81 79 92 122 129 155 135 146 97 100 69 51 61 59 43 34 39 51 39 42 46 80 57 24 33 63 52 66 55 51 68 65
154 146 130 127 118 115 114 116 120 119 112 98 95 118 101 90 79 68 64 49 50 48 68 70 67 61 58 42 45 63 63 51 54 63 38 45 49 47 62 72 63 90 72
155 155 146 138 130 129 130 131 136 126 111 106 84 76 99 96 94 86 75 61 49 39 44 35 59 72 72 60 58 51 44 57 58 80 56 51 49 50 48 47 53 53 62
159 158 150 147 135 138 128 133 125 115 114 101 92 72 76 91 93 90 86 77 56 52 52 56 48 50 71 86 71 75 58 43 52 65 79 59 52 42 44 43 51 50 53
162 158 155 147 141 140 131 120 116 121 112 105 110 101 87 84 88 88 82 73 68 52 63 63 54 62 56 58 69 63 65 64 51 42 44 40 38 51 43 40 40 46 45
159 161 156 150 145 136 135 120 121 117 115 115 108 90 82 83 85 80 79 72 63 56 63 47 33 63 74 79 64 50 64 63 71 64 55 42 37 38 40 45 39 40 38
154 158 157 150 149 136 120 111 116 120 110 108 96 90 87 79 83 80 75 59 60 55 49 67 35 46 65 72 91 66 63 58 60 72 72 60 46 45 31 29 45 41 36
143 143 141 134 132 125 118 111 102 103 105 108 109 101 96 84 83 89 81 63 58 58 40 47 78 43 55 37 80 70 61 64 62 62 72 81 70 61 50 39 36 29 39
131 138 145 139 140 130 122 131 126 135 133 122 113 129 124 119 113 102 101 83 68 71 59 41 41 79 27 18 86 54 37 53 76 82 79 76 61 69 54 49 42 40 24
135 142 145 149 141 138 140 139 130 131 119 110 114 113 114 109 115 115 107 106 110 96 75 58 53 74 59 32 29 149 135 9 32 50 56 70 60 64 56 51 47 33 43
134 146 148 148 144 146 151 140 122 108 90 98 103 102 109 100 82 87 93 90 78 90 80 65 52 51 101 29 49 107 52 90 125 337 72 63 45 56 62 40 67 43 40
134 129 138 141 143 150 150 135 139 135 133 135 126 121 111 108 93 93 91 88 82 78 77 71 50 43 47 72 37 35 65 113 103 91 0 124 173 87 79 33 61 93 59
119 129 130 131 136 146 138 134 130 125 125 128 112 118 115 106 105 99 95 92 86 83 79 75 60 52 45 60 56 17 11 21 42 90 120 283 343 218 129 114 65 51 87
96 106 114 130 140 136 131 136 139 145 135 125 130 124 121 111 107 101 98 94 90 95 91 85 79 70 57 66 54 58 61 42 19 32 33 11 76 317 157 42 149 130 95